GW3210 Weather Reports


time (UTC)temp
C
wind
direction
speed
KPH
gust
KPH
rain 1hr
cm
rain 24hr
cm
rain mn
cm
humidity
%
barometer
mb
20260906002617 21 0.0 1.6 0.00 0.00 0.00 39 1017.5
20260906001617 21 0.0 1.6 0.00 0.00 0.00 39 1017.5
20260906000617 22 338 3.2 4.8 0.00 0.00 0.00 37 1017.5
20260905235616 22 23 1.6 3.2 0.00 0.00 0.00 37 1017.5
20260905234616 21 338 3.2 6.4 0.00 0.00 0.00 39 1017.5
20260905233618 21 0 1.6 1.6 0.00 0.00 0.00 39 1017.4
20260905232617 21 45 1.6 3.2 0.00 0.00 0.00 38 1017.6
20260905231636 21 0 3.2 3.2 0.00 0.00 0.00 37 1017.8
20260905230617 22 338 6.4 9.7 0.00 0.00 0.00 37 1017.7
20260905225616 21 248 1.6 3.2 0.00 0.03 0.00 35 1017.8
20260905224617 21 338 3.2 6.4 0.00 0.03 0.00 38 1017.6
20260905223656 21 270 6.4 9.7 0.00 0.05 0.00 36 1017.7
20260905222616 21 270 4.8 6.4 0.00 0.05 0.00 36 1017.8
20260905221617 22 270 4.8 12.9 0.00 0.08 0.00 36 1017.9
20260905220616 22 293 9.7 12.9 0.00 0.08 0.00 38 1017.8
20260905215616 21 315 6.4 9.7 0.00 0.10 0.00 38 1018.1
20260905214616 22 293 6.4 11.3 0.00 0.13 0.00 39 1018.1
20260905213616 22 225 4.8 6.4 0.00 0.13 0.00 39 1018.1
20260905212616 22 338 6.4 9.7 0.00 0.13 0.00 39 1018.1
20260905211616 22 158 3.2 6.4 0.00 0.13 0.00 38 1018.1
20260905210616 22 293 9.7 12.9 0.00 0.13 0.00 39 1018.2
20260905205616 21 293 3.2 8.0 0.00 0.13 0.00 40 1018.4
20260905204616 22 248 9.7 16.1 0.00 0.13 0.00 38 1018.6
20260905203616 22 338 4.8 8.0 0.00 0.13 0.00 39 1018.6
20260905202656 22 293 1.6 3.2 0.00 0.13 0.00 43 1018.6
20260905201616 22 248 9.7 12.9 0.00 0.13 0.00 40 1018.6
20260905200616 22 315 9.7 14.5 0.00 0.13 0.00 47 1018.6
20260905195616 21 293 8.0 12.9 0.00 0.13 0.00 46 1018.5
20260905194616 21 0 4.8 8.0 0.00 0.13 0.00 50 1018.6
20260905193616 20 293 4.8 11.3 0.00 0.13 0.00 50 1018.7
20260905192617 21 248 6.4 12.9 0.00 0.13 0.00 51 1018.9
20260905191616 20 293 3.2 4.8 0.00 0.13 0.00 53 1018.9
20260905190636 19 293 6.4 8.0 0.00 0.13 0.00 57 1019.0
20260905185616 19 338 4.8 4.8 0.00 0.13 0.00 59 1019.0
20260905184616 18 315 1.6 1.6 0.00 0.13 0.00 58 1019.1
20260905183616 18 0.0 1.6 0.00 0.13 0.00 58 1019.2
20260905182621 18 45 3.2 6.4 0.00 0.13 0.00 60 1019.4
20260905181616 18 270 3.2 4.8 0.00 0.13 0.00 63 1019.4
20260905180616 17 315 4.8 8.0 0.00 0.13 0.00 64 1019.4
20260905175616 17 0 3.2 4.8 0.00 0.13 0.00 65 1019.5
20260905174616 16 293 3.2 4.8 0.00 0.13 0.00 66 1019.4
20260905173615 15 270 3.2 4.8 0.00 0.13 0.00 69 1019.4
20260905172616 15 315 1.6 3.2 0.00 0.13 0.00 68 1019.4
20260905171615 15 315 1.6 3.2 0.00 0.13 0.00 70 1019.4
20260905170635 15 0 1.6 3.2 0.00 0.13 0.00 70 1019.3
20260905165616 14 293 1.6 1.6 0.00 0.13 0.00 70 1019.3
20260905164616 14 315 4.8 6.4 0.00 0.13 0.00 71 1019.3
20260905163616 13 0.0 1.6 0.00 0.13 0.00 71 1019.3
20260905162615 13 113 4.8 6.4 0.00 0.13 0.00 70 1019.2
20260905161615 13 270 1.6 4.8 0.00 0.13 0.00 72 1019.4
20260905160615 13 180 1.6 1.6 0.00 0.13 0.00 73 1019.3
20260905155616 13 180 1.6 1.6 0.00 0.13 0.00 77 1019.4
20260905154616 12 0.0 1.6 0.00 0.13 0.00 82 1019.3
20260905153655 12 0.0 1.6 0.00 0.13 0.00 82 1019.4
20260905152616 11 0.0 0.0 0.00 0.13 0.00 83 1019.3
20260905151616 11 158 1.6 1.6 0.00 0.13 0.00 83 1019.5
20260905150616 11 158 1.6 3.2 0.00 0.13 0.00 83 1019.3
20260905145615 11 158 1.6 3.2 0.00 0.13 0.00 83 1019.1
20260905144635 11 0.0 0.0 0.00 0.13 0.00 83 1019.1
20260905143615 11 0.0 0.0 0.00 0.13 0.00 84 1019.2
20260905142636 11 0.0 0.0 0.00 0.13 0.00 84 1019.2
20260905141615 11 0.0 0.0 0.00 0.13 0.00 83 1019.2
20260905140636 11 0.0 0.0 0.00 0.13 0.00 83 1019.2
20260905135615 11 0.0 1.6 0.00 0.15 0.00 83 1019.2
20260905134615 11 0.0 1.6 0.00 0.15 0.00 83 1019.1
20260905133615 11 0.0 0.0 0.00 0.15 0.00 83 1019.1
20260905132615 11 0.0 1.6 0.00 0.15 0.00 83 1019.0
20260905131615 11 0.0 1.6 0.00 0.15 0.00 83 1018.9
20260905130658 11 0.0 0.0 0.00 0.15 0.00 83 1019.0
20260905125615 11 158 1.6 1.6 0.00 0.18 0.00 83 1018.8
20260905124635 11 0.0 1.6 0.00 0.18 0.00 83 1018.9
20260905123615 11 158 1.6 3.2 0.00 0.18 0.00 83 1018.8
20260905122615 11 0.0 1.6 0.00 0.20 0.00 83 1018.8
20260905121615 11 158 1.6 1.6 0.00 0.23 0.00 83 1018.8
20260905120615 11 0.0 0.0 0.00 0.25 0.00 83 1018.8
20260905115617 11 158 1.6 3.2 0.00 0.25 0.00 83 1018.8
20260905114637 11 158 1.6 3.2 0.00 0.25 0.00 83 1018.7
20260905113617 11 158 1.6 3.2 0.00 0.25 0.00 83 1018.5
20260905112618 11 158 1.6 1.6 0.00 0.25 0.00 83 1018.6
20260905111617 11 0.0 1.6 0.00 0.25 0.00 83 1018.5
20260905110617 11 0.0 0.0 0.00 0.25 0.00 83 1018.6
20260905105617 11 158 1.6 1.6 0.00 0.25 0.00 83 1018.5
20260905104617 11 158 1.6 3.2 0.00 0.25 0.00 83 1018.7
20260905103638 11 158 3.2 8.0 0.00 0.25 0.00 83 1018.8
20260905102617 11 135 1.6 3.2 0.00 0.25 0.00 83 1018.7
20260905101617 11 135 1.6 3.2 0.00 0.25 0.00 83 1018.6
20260905100617 11 0.0 0.0 0.00 0.25 0.00 83 1018.5
20260905095617 11 0.0 0.0 0.00 0.25 0.00 82 1018.6
20260905094617 11 0.0 0.0 0.00 0.25 0.00 82 1018.8
20260905093617 11 0.0 1.6 0.00 0.25 0.00 82 1018.8
20260905092617 11 135 3.2 4.8 0.00 0.25 0.00 81 1018.7
20260905091637 11 113 3.2 4.8 0.00 0.25 0.00 76 1018.7
20260905090617 11 0.0 1.6 0.00 0.25 0.00 75 1018.6
20260905085617 11 0.0 1.6 0.00 0.25 0.00 75 1018.6
20260905084637 11 113 1.6 3.2 0.00 0.25 0.00 76 1018.6
20260905083617 12 113 1.6 3.2 0.00 0.25 0.00 76 1018.5
20260905082616 12 113 1.6 1.6 0.00 0.25 0.00 76 1018.4
20260905081617 12 0.0 0.0 0.00 0.25 0.00 76 1018.4
20260905080636 12 0.0 1.6 0.00 0.25 0.00 76 1018.4
20260905075617 12 0.0 0.0 0.00 0.25 0.00 76 1018.4
20260905074616 12 113 1.6 1.6 0.00 0.25 0.00 76 1018.4
20260905073637 12 0.0 1.6 0.00 0.25 0.00 75 1018.3
20260905072616 12 113 1.6 1.6 0.00 0.25 0.00 75 1018.3
20260905065756 12 0.0 1.6 0.00 0.25 0.25 76 1018.1
20260905064616 12 0.0 0.0 0.00 0.25 0.25 73 1018.1
20260905063615 12 0.0 0.0 0.00 0.25 0.25 73 1018.1
20260905062636 12 0.0 1.6 0.00 0.25 0.25 71 1017.8
20260905061615 12 0.0 0.0 0.00 0.25 0.25 70 1017.8
20260905060615 12 0.0 0.0 0.00 0.25 0.25 70 1017.8
20260905055615 12 0.0 1.6 0.00 0.25 0.25 69 1017.7
20260905054615 12 113 1.6 1.6 0.00 0.25 0.25 69 1017.7
20260905053617 12 113 1.6 3.2 0.00 0.25 0.25 69 1017.7
20260905052617 12 0.0 0.0 0.00 0.25 0.25 69 1017.6
20260905051617 13 135 1.6 3.2 0.00 0.25 0.25 68 1017.5
20260905050617 13 0.0 1.6 0.00 0.25 0.25 67 1017.5
20260905045617 13 158 1.6 1.6 0.00 0.25 0.25 67 1017.4
20260905044637 13 158 1.6 4.8 0.00 0.25 0.25 67 1017.4
20260905043617 13 158 1.6 4.8 0.00 0.25 0.25 65 1017.4
20260905042619 13 158 1.6 1.6 0.00 0.25 0.25 66 1017.3
20260905041619 13 158 1.6 4.8 0.00 0.25 0.25 68 1017.3
20260905040617 13 158 1.6 4.8 0.00 0.25 0.25 68 1017.2
20260905035617 13 158 1.6 1.6 0.00 0.25 0.25 67 1017.1
20260905034636 13 158 4.8 6.4 0.00 0.25 0.25 67 1016.9
20260905033617 13 158 3.2 6.4 0.00 0.25 0.25 66 1016.8
20260905032617 13 158 3.2 3.2 0.00 0.25 0.25 65 1016.7
20260905031617 13 113 1.6 3.2 0.00 0.25 0.25 65 1016.7
20260905030617 13 113 1.6 3.2 0.00 0.25 0.25 64 1016.7
20260905025617 13 113 1.6 3.2 0.00 0.25 0.25 65 1016.6
20260905024619 14 0.0 1.6 0.00 0.25 0.25 64 1016.7
20260905023617 14 113 1.6 1.6 0.00 0.25 0.25 63 1016.7
20260905022617 15 113 1.6 3.2 0.00 0.25 0.25 63 1016.7
20260905021616 15 0.0 1.6 0.00 0.25 0.25 62 1016.8
20260905020617 15 0.0 0.0 0.00 0.25 0.25 61 1016.7
20260905015617 16 0.0 1.6 0.00 0.25 0.25 60 1016.5
20260905014617 16 0.0 0.0 0.00 0.25 0.25 58 1016.4
20260905013616 16 0.0 0.0 0.00 0.25 0.25 58 1016.4
20260905012617 17 0.0 3.2 0.00 0.25 0.25 57 1016.3
20260905011616 16 135 1.6 3.2 0.00 0.25 0.25 57 1016.2
20260905010616 16 113 3.2 4.8 0.00 0.25 0.25 59 1016.1
20260905005617 16 158 1.6 3.2 0.00 0.25 0.25 59 1016.1
20260905004617 16 113 3.2 4.8 0.00 0.25 0.25 61 1016.1
20260905003616 15 113 3.2 4.8 0.00 0.25 0.25 66 1016.1